Year,Month,Day,Hour,Minute,Value (Times are PST for temperature in C)
2008,09,30,00,00,11.60
2008,09,30,00,01,11.60
2008,09,30,00,02,11.60
2008,09,30,00,03,11.60
2008,09,30,00,04,11.60
2008,09,30,00,05,11.60
2008,09,30,00,06,11.60
2008,09,30,00,07,11.60
2008,09,30,00,08,11.60
2008,09,30,00,09,11.60
2008,09,30,00,10,11.60
2008,09,30,00,11,11.60
2008,09,30,00,12,11.70
2008,09,30,00,13,11.70
2008,09,30,00,14,11.70
2008,09,30,00,15,11.70
2008,09,30,00,16,11.70
2008,09,30,00,17,11.70
2008,09,30,00,18,11.60
2008,09,30,00,19,11.60
2008,09,30,00,20,11.60
2008,09,30,00,21,11.60
2008,09,30,00,22,11.60
2008,09,30,00,23,11.60
2008,09,30,00,24,11.70
2008,09,30,00,25,11.70
2008,09,30,00,26,11.70
2008,09,30,00,27,11.80
2008,09,30,00,28,11.80
2008,09,30,00,29,11.80
2008,09,30,00,30,11.80
2008,09,30,00,31,11.80
2008,09,30,00,32,11.80
2008,09,30,00,33,11.80
2008,09,30,00,34,11.80
2008,09,30,00,35,11.80
2008,09,30,00,36,11.80
2008,09,30,00,37,11.80
2008,09,30,00,38,11.80
2008,09,30,00,39,11.70
2008,09,30,00,40,11.70
2008,09,30,00,41,11.70
2008,09,30,00,42,11.60
2008,09,30,00,43,11.60
2008,09,30,00,44,11.60
2008,09,30,00,45,11.60
2008,09,30,00,46,11.50
2008,09,30,00,47,11.40
2008,09,30,00,48,11.40
2008,09,30,00,49,11.40
2008,09,30,00,50,11.40
2008,09,30,00,51,11.40
2008,09,30,00,52,11.40
2008,09,30,00,53,11.30
2008,09,30,00,54,11.30
2008,09,30,00,55,11.30
2008,09,30,00,56,11.30
2008,09,30,00,57,11.30
2008,09,30,00,58,11.30
2008,09,30,00,59,11.30
2008,09,30,01,00,11.30
2008,09,30,01,01,11.30
2008,09,30,01,02,11.40
2008,09,30,01,03,11.40
2008,09,30,01,04,11.40
2008,09,30,01,05,11.40
2008,09,30,01,06,11.50
2008,09,30,01,07,11.60
2008,09,30,01,08,11.70
2008,09,30,01,09,11.80
2008,09,30,01,10,12.00
2008,09,30,01,11,12.10
2008,09,30,01,12,12.20
2008,09,30,01,13,12.30
2008,09,30,01,14,12.30
2008,09,30,01,15,12.20
2008,09,30,01,16,12.10
2008,09,30,01,17,12.10
2008,09,30,01,18,12.10
2008,09,30,01,19,12.10
2008,09,30,01,20,12.10
2008,09,30,01,21,12.10
2008,09,30,01,22,12.10
2008,09,30,01,23,12.20
2008,09,30,01,24,12.20
2008,09,30,01,25,12.30
2008,09,30,01,26,12.30
2008,09,30,01,27,12.40
2008,09,30,01,28,12.50
2008,09,30,01,29,12.60
2008,09,30,01,30,12.80
2008,09,30,01,31,12.80
2008,09,30,01,32,12.80
2008,09,30,01,33,12.80
2008,09,30,01,34,12.70
2008,09,30,01,35,12.70
2008,09,30,01,36,12.70
2008,09,30,01,37,12.70
2008,09,30,01,38,12.50
2008,09,30,01,39,12.40
2008,09,30,01,40,12.40
2008,09,30,01,41,12.40
2008,09,30,01,42,12.40
2008,09,30,01,43,12.40
2008,09,30,01,44,12.40
2008,09,30,01,45,12.30
2008,09,30,01,46,12.30
2008,09,30,01,47,12.30
2008,09,30,01,48,12.30
2008,09,30,01,49,12.30
2008,09,30,01,50,12.20
2008,09,30,01,51,12.20
2008,09,30,01,52,12.20
2008,09,30,01,53,12.20
2008,09,30,01,54,12.20
2008,09,30,01,55,12.10
2008,09,30,01,56,12.10
2008,09,30,01,57,12.10
2008,09,30,01,58,12.00
2008,09,30,01,59,12.10
2008,09,30,02,00,12.10
2008,09,30,02,01,12.20
2008,09,30,02,02,12.20
2008,09,30,02,03,12.20
2008,09,30,02,04,12.20
2008,09,30,02,05,12.20
2008,09,30,02,06,12.20
2008,09,30,02,07,12.30
2008,09,30,02,08,12.30
2008,09,30,02,09,12.30
2008,09,30,02,10,12.30
2008,09,30,02,11,12.40
2008,09,30,02,12,12.50
2008,09,30,02,13,12.50
2008,09,30,02,14,12.50
2008,09,30,02,15,12.60
2008,09,30,02,16,12.60
2008,09,30,02,17,12.60
2008,09,30,02,18,12.60
2008,09,30,02,19,12.60
2008,09,30,02,20,12.60
2008,09,30,02,21,12.60
2008,09,30,02,22,12.60
2008,09,30,02,23,12.50
2008,09,30,02,24,12.50
2008,09,30,02,25,12.40
2008,09,30,02,26,12.40
2008,09,30,02,27,12.40
2008,09,30,02,28,12.40
2008,09,30,02,29,12.40
2008,09,30,02,30,12.40
2008,09,30,02,31,12.40
2008,09,30,02,32,12.40
2008,09,30,02,33,12.40
2008,09,30,02,34,12.40
2008,09,30,02,35,12.40
2008,09,30,02,36,12.40
2008,09,30,02,37,12.40
2008,09,30,02,38,12.40
2008,09,30,02,39,12.40
2008,09,30,02,40,12.40
2008,09,30,02,41,12.40
2008,09,30,02,42,12.40
2008,09,30,02,43,12.40
2008,09,30,02,44,12.40
2008,09,30,02,45,12.30
2008,09,30,02,46,12.30
2008,09,30,02,47,12.30
2008,09,30,02,48,12.30
2008,09,30,02,49,12.30
2008,09,30,02,50,12.30
2008,09,30,02,51,12.30
2008,09,30,02,52,12.30
2008,09,30,02,53,12.30
2008,09,30,02,54,12.30
2008,09,30,02,55,12.30
2008,09,30,02,56,12.30
2008,09,30,02,57,12.30
2008,09,30,02,58,12.20
2008,09,30,02,59,12.20
2008,09,30,03,00,12.20
2008,09,30,03,01,12.20
2008,09,30,03,02,12.20
2008,09,30,03,03,12.10
2008,09,30,03,04,12.10
2008,09,30,03,05,12.00
2008,09,30,03,06,12.00
2008,09,30,03,07,11.90
2008,09,30,03,08,11.80
2008,09,30,03,09,11.80
2008,09,30,03,10,11.80
2008,09,30,03,11,11.80
2008,09,30,03,12,11.80
2008,09,30,03,13,11.80
2008,09,30,03,14,11.80
2008,09,30,03,15,11.80
2008,09,30,03,16,11.80
2008,09,30,03,17,11.80
2008,09,30,03,18,11.80
2008,09,30,03,19,11.80
2008,09,30,03,20,11.80
2008,09,30,03,21,11.80
2008,09,30,03,22,11.90
2008,09,30,03,23,11.90
2008,09,30,03,24,11.90
2008,09,30,03,25,11.90
2008,09,30,03,26,11.90
2008,09,30,03,27,12.00
2008,09,30,03,28,12.00
2008,09,30,03,29,12.00
2008,09,30,03,30,12.00
2008,09,30,03,31,12.00
2008,09,30,03,32,12.00
2008,09,30,03,33,11.90
2008,09,30,03,34,11.90
2008,09,30,03,35,11.80
2008,09,30,03,36,11.80
2008,09,30,03,37,11.80
2008,09,30,03,38,11.70
2008,09,30,03,39,11.70
2008,09,30,03,40,11.70
2008,09,30,03,41,11.60
2008,09,30,03,42,11.60
2008,09,30,03,43,11.60
2008,09,30,03,44,11.60
2008,09,30,03,45,11.60
2008,09,30,03,46,11.60
2008,09,30,03,47,11.60
2008,09,30,03,48,11.60
2008,09,30,03,49,11.60
2008,09,30,03,50,11.60
2008,09,30,03,51,11.50
2008,09,30,03,52,11.40
2008,09,30,03,53,11.40
2008,09,30,03,54,11.40
2008,09,30,03,55,11.40
2008,09,30,03,56,11.40
2008,09,30,03,57,11.40
2008,09,30,03,58,11.40
2008,09,30,03,59,11.40
2008,09,30,04,00,11.60
2008,09,30,04,01,11.60
2008,09,30,04,02,11.50
2008,09,30,04,03,11.40
2008,09,30,04,04,11.40
2008,09,30,04,05,11.40
2008,09,30,04,06,11.40
2008,09,30,04,07,11.30
2008,09,30,04,08,11.30
2008,09,30,04,09,11.30
2008,09,30,04,10,11.30
2008,09,30,04,11,11.30
2008,09,30,04,12,11.30
2008,09,30,04,13,11.30
2008,09,30,04,14,11.30
2008,09,30,04,15,11.30
2008,09,30,04,16,11.30
2008,09,30,04,17,11.30
2008,09,30,04,18,11.30
2008,09,30,04,19,11.30
2008,09,30,04,20,11.20
2008,09,30,04,21,11.20
2008,09,30,04,22,11.20
2008,09,30,04,23,11.20
2008,09,30,04,24,11.10
2008,09,30,04,25,11.10
2008,09,30,04,26,11.10
2008,09,30,04,27,11.10
2008,09,30,04,28,11.10
2008,09,30,04,29,11.10
2008,09,30,04,30,11.10
2008,09,30,04,31,11.00
2008,09,30,04,32,10.90
2008,09,30,04,33,10.90
2008,09,30,04,34,10.90
2008,09,30,04,35,10.90
2008,09,30,04,36,11.00
2008,09,30,04,37,11.10
2008,09,30,04,38,11.10
2008,09,30,04,39,11.10
2008,09,30,04,40,11.10
2008,09,30,04,41,11.10
2008,09,30,04,42,11.10
2008,09,30,04,43,11.10
2008,09,30,04,44,11.10
2008,09,30,04,45,11.10
2008,09,30,04,46,11.10
2008,09,30,04,47,11.10
2008,09,30,04,48,11.10
2008,09,30,04,49,11.10
2008,09,30,04,50,11.00
2008,09,30,04,51,10.90
2008,09,30,04,52,10.90
2008,09,30,04,53,10.90
2008,09,30,04,54,10.90
2008,09,30,04,55,10.90
2008,09,30,04,56,10.90
2008,09,30,04,57,10.90
2008,09,30,04,58,10.90
2008,09,30,04,59,10.90
2008,09,30,05,00,10.90
2008,09,30,05,01,10.90
2008,09,30,05,02,10.90
2008,09,30,05,03,10.90
2008,09,30,05,04,10.90
2008,09,30,05,05,10.90
2008,09,30,05,06,10.90
2008,09,30,05,07,10.90
2008,09,30,05,08,10.90
2008,09,30,05,09,11.00
2008,09,30,05,10,11.10
2008,09,30,05,11,11.10
2008,09,30,05,12,11.10
2008,09,30,05,13,11.10
2008,09,30,05,14,11.10
2008,09,30,05,15,11.10
2008,09,30,05,16,10.90
2008,09,30,05,17,10.90
2008,09,30,05,18,10.80
2008,09,30,05,19,10.80
2008,09,30,05,20,10.80
2008,09,30,05,21,10.70
2008,09,30,05,22,10.60
2008,09,30,05,23,10.60
2008,09,30,05,24,10.60
2008,09,30,05,25,10.60
2008,09,30,05,26,10.60
2008,09,30,05,27,10.60
2008,09,30,05,28,10.60
2008,09,30,05,29,10.40
2008,09,30,05,30,10.40
2008,09,30,05,31,10.40
2008,09,30,05,32,10.40
2008,09,30,05,33,10.40
2008,09,30,05,34,10.40
2008,09,30,05,35,10.40
2008,09,30,05,36,10.40
2008,09,30,05,37,10.30
2008,09,30,05,38,10.30
2008,09,30,05,39,10.30
2008,09,30,05,40,10.30
2008,09,30,05,41,10.30
2008,09,30,05,42,10.30
2008,09,30,05,43,10.20
2008,09,30,05,44,10.20
2008,09,30,05,45,10.20
2008,09,30,05,46,10.20
2008,09,30,05,47,10.10
2008,09,30,05,48,10.10
2008,09,30,05,49,10.10
2008,09,30,05,50,10.10
2008,09,30,05,51,10.10
2008,09,30,05,52,10.10
2008,09,30,05,53,10.20
2008,09,30,05,54,10.20
2008,09,30,05,55,10.10
2008,09,30,05,56,10.10
2008,09,30,05,57,10.10
2008,09,30,05,58,10.10
2008,09,30,05,59,10.10
2008,09,30,06,00,10.20
2008,09,30,06,01,10.20
2008,09,30,06,02,10.20
2008,09,30,06,03,10.10
2008,09,30,06,04,10.10
2008,09,30,06,05,10.10
2008,09,30,06,06,10.10
2008,09,30,06,07,10.10
2008,09,30,06,08,10.10
2008,09,30,06,09,10.20
2008,09,30,06,10,10.20
2008,09,30,06,11,10.20
2008,09,30,06,12,10.20
2008,09,30,06,13,10.10
2008,09,30,06,14,10.10
2008,09,30,06,15,10.10
2008,09,30,06,16,10.10
2008,09,30,06,17,10.10
2008,09,30,06,18,10.10
2008,09,30,06,19,10.10
2008,09,30,06,20,10.10
2008,09,30,06,21,10.10
2008,09,30,06,22,10.10
2008,09,30,06,23,10.10
2008,09,30,06,24,10.10
2008,09,30,06,25,10.10
2008,09,30,06,26,10.10
2008,09,30,06,27,10.10
2008,09,30,06,28,10.10
2008,09,30,06,29,10.10
2008,09,30,06,30,10.10
2008,09,30,06,31,10.10
2008,09,30,06,32,10.10
2008,09,30,06,33,10.10
2008,09,30,06,34,10.10
2008,09,30,06,35,10.10
2008,09,30,06,36,10.10
2008,09,30,06,37,10.10
2008,09,30,06,38,10.10
2008,09,30,06,39,10.10
2008,09,30,06,40,10.10
2008,09,30,06,41,10.10
2008,09,30,06,42,10.10
2008,09,30,06,43,9.90
2008,09,30,06,44,9.90
2008,09,30,06,45,9.90
2008,09,30,06,46,9.90
2008,09,30,06,47,9.90
2008,09,30,06,48,9.90
2008,09,30,06,49,9.90
2008,09,30,06,50,9.90
2008,09,30,06,51,9.90
2008,09,30,06,52,9.90
2008,09,30,06,53,9.90
2008,09,30,06,54,9.90
2008,09,30,06,55,9.90
2008,09,30,06,56,9.80
2008,09,30,06,57,9.80
2008,09,30,06,58,9.80
2008,09,30,06,59,9.80
2008,09,30,07,00,9.70
2008,09,30,07,01,9.70
2008,09,30,07,02,9.70
2008,09,30,07,03,9.70
2008,09,30,07,04,9.70
2008,09,30,07,05,9.70
2008,09,30,07,06,9.70
2008,09,30,07,07,9.70
2008,09,30,07,08,9.70
2008,09,30,07,09,9.70
2008,09,30,07,10,9.70
2008,09,30,07,11,9.70
2008,09,30,07,12,9.70
2008,09,30,07,13,9.70
2008,09,30,07,14,9.70
2008,09,30,07,15,9.80
2008,09,30,07,16,9.80
2008,09,30,07,17,9.80
2008,09,30,07,18,9.80
2008,09,30,07,19,9.80
2008,09,30,07,20,9.80
2008,09,30,07,21,9.90
2008,09,30,07,22,9.90
2008,09,30,07,23,9.90
2008,09,30,07,24,9.90
2008,09,30,07,25,9.80
2008,09,30,07,26,9.80
2008,09,30,07,27,9.80
2008,09,30,07,28,9.80
2008,09,30,07,29,9.80
2008,09,30,07,30,9.80
2008,09,30,07,31,9.80
2008,09,30,07,32,9.90
2008,09,30,07,33,9.90
2008,09,30,07,34,9.90
2008,09,30,07,35,9.90
2008,09,30,07,36,9.90
2008,09,30,07,37,9.90
2008,09,30,07,38,9.90
2008,09,30,07,39,9.80
2008,09,30,07,40,9.70
2008,09,30,07,41,9.70
2008,09,30,07,42,9.80
2008,09,30,07,43,9.80
2008,09,30,07,44,9.80
2008,09,30,07,45,9.80
2008,09,30,07,46,9.80
2008,09,30,07,47,9.80
2008,09,30,07,48,9.90
2008,09,30,07,49,9.90
2008,09,30,07,50,9.90
2008,09,30,07,51,9.90
2008,09,30,07,52,10.00
2008,09,30,07,53,10.10
2008,09,30,07,54,10.10
2008,09,30,07,55,10.10
2008,09,30,07,56,10.10
2008,09,30,07,57,10.20
2008,09,30,07,58,10.20
2008,09,30,07,59,10.30
2008,09,30,08,00,10.30
2008,09,30,08,01,10.40
2008,09,30,08,02,10.40
2008,09,30,08,03,10.40
2008,09,30,08,04,10.40
2008,09,30,08,05,10.40
2008,09,30,08,06,10.40
2008,09,30,08,07,10.50
2008,09,30,08,08,10.60
2008,09,30,08,09,10.60
2008,09,30,08,10,10.60
2008,09,30,08,11,10.60
2008,09,30,08,12,10.60
2008,09,30,08,13,10.60
2008,09,30,08,14,10.70
2008,09,30,08,15,10.70
2008,09,30,08,16,10.70
2008,09,30,08,17,10.80
2008,09,30,08,18,10.80
2008,09,30,08,19,10.90
2008,09,30,08,20,10.90
2008,09,30,08,21,11.10
2008,09,30,08,22,11.10
2008,09,30,08,23,11.10
2008,09,30,08,24,11.20
2008,09,30,08,25,11.20
2008,09,30,08,26,11.30
2008,09,30,08,27,11.30
2008,09,30,08,28,11.30
2008,09,30,08,29,11.30
2008,09,30,08,30,11.70
2008,09,30,08,31,11.80
2008,09,30,08,32,11.80
2008,09,30,08,33,11.90
2008,09,30,08,34,11.90
2008,09,30,08,35,12.00
2008,09,30,08,36,12.10
2008,09,30,08,37,12.10
2008,09,30,08,38,12.10
2008,09,30,08,39,12.10
2008,09,30,08,40,12.10
2008,09,30,08,41,12.10
2008,09,30,08,42,12.10
2008,09,30,08,43,12.20
2008,09,30,08,44,12.30
2008,09,30,08,45,12.30
2008,09,30,08,46,12.30
2008,09,30,08,47,12.30
2008,09,30,08,48,12.30
2008,09,30,08,49,12.30
2008,09,30,08,50,12.30
2008,09,30,08,51,12.20
2008,09,30,08,52,12.20
2008,09,30,08,53,12.20
2008,09,30,08,54,12.20
2008,09,30,08,55,12.20
2008,09,30,08,56,12.20
2008,09,30,08,57,12.20
2008,09,30,08,58,12.20
2008,09,30,08,59,12.30
2008,09,30,09,00,12.30
2008,09,30,09,01,12.30
2008,09,30,09,02,12.40
2008,09,30,09,03,12.40
2008,09,30,09,04,12.50
2008,09,30,09,05,12.60
2008,09,30,09,06,12.70
2008,09,30,09,07,12.80
2008,09,30,09,08,12.90
2008,09,30,09,09,13.00
2008,09,30,09,10,13.10
2008,09,30,09,11,13.10
2008,09,30,09,12,13.20
2008,09,30,09,13,13.20
2008,09,30,09,14,13.30
2008,09,30,09,15,13.30
2008,09,30,09,16,13.40
2008,09,30,09,17,13.40
2008,09,30,09,18,13.40
2008,09,30,09,19,13.50
2008,09,30,09,20,13.50
2008,09,30,09,21,13.60
2008,09,30,09,22,13.60
2008,09,30,09,23,13.60
2008,09,30,09,24,13.70
2008,09,30,09,25,13.70
2008,09,30,09,26,13.70
2008,09,30,09,27,13.80
2008,09,30,09,28,13.80
2008,09,30,09,29,13.90
2008,09,30,09,30,13.90
2008,09,30,09,31,13.90
2008,09,30,09,32,13.90
2008,09,30,09,33,14.00
2008,09,30,09,34,14.30
2008,09,30,09,35,14.50
2008,09,30,09,36,14.60
2008,09,30,09,37,14.70
2008,09,30,09,38,14.90
2008,09,30,09,39,15.00
2008,09,30,09,40,15.10
2008,09,30,09,41,15.20
2008,09,30,09,42,15.30
2008,09,30,09,43,15.40
2008,09,30,09,44,15.50
2008,09,30,09,45,15.50
2008,09,30,09,46,15.60
2008,09,30,09,47,15.70
2008,09,30,09,48,15.70
2008,09,30,09,49,15.70
2008,09,30,09,50,15.70
2008,09,30,09,51,15.70
2008,09,30,09,52,15.80
2008,09,30,09,53,15.80
2008,09,30,09,54,15.80
2008,09,30,09,55,15.90
2008,09,30,09,56,16.00
2008,09,30,09,57,16.10
2008,09,30,09,58,16.10
2008,09,30,09,59,16.10
2008,09,30,10,00,16.10
2008,09,30,10,01,16.20
2008,09,30,10,02,16.30
2008,09,30,10,03,16.40
2008,09,30,10,04,16.50
2008,09,30,10,05,16.70
2008,09,30,10,06,16.70
2008,09,30,10,07,16.80
2008,09,30,10,08,16.90
2008,09,30,10,09,17.00
2008,09,30,10,10,17.00
2008,09,30,10,11,17.10
2008,09,30,10,12,17.10
2008,09,30,10,13,17.20
2008,09,30,10,14,17.20
2008,09,30,10,15,17.30
2008,09,30,10,16,17.30
2008,09,30,10,17,17.30
2008,09,30,10,18,17.30
2008,09,30,10,19,17.30
2008,09,30,10,20,17.30
2008,09,30,10,21,17.30
2008,09,30,10,22,17.30
2008,09,30,10,23,17.30
2008,09,30,10,24,17.30
2008,09,30,10,25,17.30
2008,09,30,10,26,17.30
2008,09,30,10,27,17.60
2008,09,30,10,28,17.90
2008,09,30,10,29,17.90
2008,09,30,10,30,18.00
2008,09,30,10,31,18.10
2008,09,30,10,32,18.10
2008,09,30,10,33,18.10
2008,09,30,10,34,18.20
2008,09,30,10,35,18.20
2008,09,30,10,36,18.30
2008,09,30,10,37,18.30
2008,09,30,10,38,18.40
2008,09,30,10,39,18.30
2008,09,30,10,40,18.30
2008,09,30,10,41,18.30
2008,09,30,10,42,18.30
2008,09,30,10,43,18.30
2008,09,30,10,44,18.30
2008,09,30,10,45,18.30
2008,09,30,10,46,18.30
2008,09,30,10,47,18.30
2008,09,30,10,48,18.30
2008,09,30,10,49,18.30
2008,09,30,10,50,18.30
2008,09,30,10,51,18.40
2008,09,30,10,52,18.40
2008,09,30,10,53,18.40
2008,09,30,10,54,18.40
2008,09,30,10,55,18.40
2008,09,30,10,56,18.30
2008,09,30,10,57,17.80
2008,09,30,10,58,17.20
2008,09,30,10,59,16.60
2008,09,30,11,00,16.10
2008,09,30,11,01,15.80
2008,09,30,11,02,15.50
2008,09,30,11,03,15.30
2008,09,30,11,04,15.20
2008,09,30,11,05,15.00
2008,09,30,11,06,15.00
2008,09,30,11,07,14.80
2008,09,30,11,08,14.80
2008,09,30,11,09,14.80
2008,09,30,11,10,14.80
2008,09,30,11,11,14.80
2008,09,30,11,12,14.80
2008,09,30,11,13,14.80
2008,09,30,11,14,14.70
2008,09,30,11,15,14.70
2008,09,30,11,16,14.70
2008,09,30,11,17,14.80
2008,09,30,11,18,14.80
2008,09,30,11,19,14.80
2008,09,30,11,20,14.80
2008,09,30,11,21,14.80
2008,09,30,11,22,14.90
2008,09,30,11,23,15.20
2008,09,30,11,24,15.30
2008,09,30,11,25,15.50
2008,09,30,11,26,15.50
2008,09,30,11,27,15.70
2008,09,30,11,28,15.80
2008,09,30,11,29,15.90
2008,09,30,11,30,16.10
2008,09,30,11,31,16.10
2008,09,30,11,32,16.20
2008,09,30,11,33,16.30
2008,09,30,11,34,16.40
2008,09,30,11,35,16.40
2008,09,30,11,36,16.60
2008,09,30,11,37,16.70
2008,09,30,11,38,16.70
2008,09,30,11,39,16.80
2008,09,30,11,40,16.90
2008,09,30,11,41,17.00
2008,09,30,11,42,17.10
2008,09,30,11,43,17.10
2008,09,30,11,44,17.20
2008,09,30,11,45,17.20
2008,09,30,11,46,17.20
2008,09,30,11,47,17.30
2008,09,30,11,48,17.30
2008,09,30,11,49,17.30
2008,09,30,11,50,17.30
2008,09,30,11,51,17.40
2008,09,30,11,52,17.40
2008,09,30,11,53,17.40
2008,09,30,11,54,17.40
2008,09,30,11,55,17.50
2008,09,30,11,56,17.50
2008,09,30,11,57,17.50
2008,09,30,11,58,17.50
2008,09,30,11,59,17.40
2008,09,30,12,00,17.40
2008,09,30,12,01,17.40
2008,09,30,12,02,17.40
2008,09,30,12,03,17.40
2008,09,30,12,04,17.40
2008,09,30,12,05,17.40
2008,09,30,12,06,17.50
2008,09,30,12,07,17.70
2008,09,30,12,08,17.70
2008,09,30,12,09,17.70
2008,09,30,12,10,17.70
2008,09,30,12,11,17.70
2008,09,30,12,12,17.80
2008,09,30,12,13,17.80
2008,09,30,12,14,17.80
2008,09,30,12,15,17.80
2008,09,30,12,16,17.80
2008,09,30,12,17,17.80
2008,09,30,12,18,17.80
2008,09,30,12,19,17.90
2008,09,30,12,20,17.90
2008,09,30,12,21,18.00
2008,09,30,12,22,18.10
2008,09,30,12,23,18.10
2008,09,30,12,24,18.20
2008,09,30,12,25,18.20
2008,09,30,12,26,18.20
2008,09,30,12,27,18.20
2008,09,30,12,28,18.20
2008,09,30,12,29,18.20
2008,09,30,12,30,18.20
2008,09,30,12,31,18.20
2008,09,30,12,32,18.20
2008,09,30,12,33,18.20
2008,09,30,12,34,18.20
2008,09,30,12,35,18.30
2008,09,30,12,36,18.40
2008,09,30,12,37,18.40
2008,09,30,12,38,18.50
2008,09,30,12,39,18.60
2008,09,30,12,40,18.60
2008,09,30,12,41,18.60
2008,09,30,12,42,18.60
2008,09,30,12,43,18.60
2008,09,30,12,44,18.70
2008,09,30,12,45,18.70
2008,09,30,12,46,18.70
2008,09,30,12,47,18.70
2008,09,30,12,48,18.80
2008,09,30,12,49,18.90
2008,09,30,12,50,18.90
2008,09,30,12,51,18.90
2008,09,30,12,52,18.80
2008,09,30,12,53,18.60
2008,09,30,12,54,18.50
2008,09,30,12,55,18.40
2008,09,30,12,56,18.30
2008,09,30,12,57,18.30
2008,09,30,12,58,18.40
2008,09,30,12,59,18.50
2008,09,30,13,00,18.50
2008,09,30,13,01,18.50
2008,09,30,13,02,18.40
2008,09,30,13,03,18.30
2008,09,30,13,04,18.20
2008,09,30,13,05,18.20
2008,09,30,13,06,18.10
2008,09,30,13,07,18.10
2008,09,30,13,08,18.10
2008,09,30,13,09,18.10
2008,09,30,13,10,18.10
2008,09,30,13,11,17.90
2008,09,30,13,12,17.90
2008,09,30,13,13,17.90
2008,09,30,13,14,17.80
2008,09,30,13,15,17.80
2008,09,30,13,16,17.70
2008,09,30,13,17,17.60
2008,09,30,13,18,17.60
2008,09,30,13,19,17.60
2008,09,30,13,20,17.60
2008,09,30,13,21,17.60
2008,09,30,13,22,17.60
2008,09,30,13,23,17.50
2008,09,30,13,24,17.60
2008,09,30,13,25,17.60
2008,09,30,13,26,17.70
2008,09,30,13,27,17.80
2008,09,30,13,28,17.80
2008,09,30,13,29,17.80
2008,09,30,13,30,17.80
2008,09,30,13,31,17.80
2008,09,30,13,32,17.80
2008,09,30,13,33,17.90
2008,09,30,13,34,17.90
2008,09,30,13,35,17.90
2008,09,30,13,36,18.00
2008,09,30,13,37,17.90
2008,09,30,13,38,17.90
2008,09,30,13,39,17.90
2008,09,30,13,40,17.90
2008,09,30,13,41,17.90
2008,09,30,13,42,18.10
2008,09,30,13,43,18.10
2008,09,30,13,44,18.20
2008,09,30,13,45,18.20
2008,09,30,13,46,18.20
2008,09,30,13,47,18.20
2008,09,30,13,48,18.20
2008,09,30,13,49,18.30
2008,09,30,13,50,18.30
2008,09,30,13,51,18.20
2008,09,30,13,52,18.20
2008,09,30,13,53,18.20
2008,09,30,13,54,18.30
2008,09,30,13,55,18.30
2008,09,30,13,56,18.50
2008,09,30,13,57,18.60
2008,09,30,13,58,18.90
2008,09,30,13,59,18.90
2008,09,30,14,00,19.00
2008,09,30,14,01,19.10
2008,09,30,14,02,19.00
2008,09,30,14,03,18.90
2008,09,30,14,04,19.00
2008,09,30,14,05,19.10
2008,09,30,14,06,19.20
2008,09,30,14,07,19.30
2008,09,30,14,08,19.30
2008,09,30,14,09,19.30
2008,09,30,14,10,19.30
2008,09,30,14,11,19.30
2008,09,30,14,12,19.30
2008,09,30,14,13,19.30
2008,09,30,14,14,19.30
2008,09,30,14,15,19.30
2008,09,30,14,16,19.20
2008,09,30,14,17,19.10
2008,09,30,14,18,19.10
2008,09,30,14,19,19.00
2008,09,30,14,20,18.80
2008,09,30,14,21,18.70
2008,09,30,14,22,18.60
2008,09,30,14,23,18.60
2008,09,30,14,24,18.50
2008,09,30,14,25,18.40
2008,09,30,14,26,18.40
2008,09,30,14,27,18.30
2008,09,30,14,28,18.30
2008,09,30,14,29,18.20
2008,09,30,14,30,18.20
2008,09,30,14,31,18.20
2008,09,30,14,32,18.30
2008,09,30,14,33,18.30
2008,09,30,14,34,18.40
2008,09,30,14,35,18.40
2008,09,30,14,36,18.40
2008,09,30,14,37,18.40
2008,09,30,14,38,18.30
2008,09,30,14,39,18.40
2008,09,30,14,40,18.40
2008,09,30,14,41,18.50
2008,09,30,14,42,18.60
2008,09,30,14,43,18.70
2008,09,30,14,44,18.80
2008,09,30,14,45,18.90
2008,09,30,14,46,18.90
2008,09,30,14,47,19.00
2008,09,30,14,48,19.10
2008,09,30,14,49,19.20
2008,09,30,14,50,19.30
2008,09,30,14,51,19.40
2008,09,30,14,52,19.50
2008,09,30,14,53,19.60
2008,09,30,14,54,19.70
2008,09,30,14,55,19.70
2008,09,30,14,56,19.70
2008,09,30,14,57,19.70
2008,09,30,14,58,19.60
2008,09,30,14,59,19.60
2008,09,30,15,00,19.60
2008,09,30,15,01,19.60
2008,09,30,15,02,19.50
2008,09,30,15,03,19.60
2008,09,30,15,04,19.70
2008,09,30,15,05,19.70
2008,09,30,15,06,19.70
2008,09,30,15,07,19.70
2008,09,30,15,08,19.60
2008,09,30,15,09,19.60
2008,09,30,15,10,19.60
2008,09,30,15,11,19.60
2008,09,30,15,12,19.60
2008,09,30,15,13,19.70
2008,09,30,15,14,19.80
2008,09,30,15,15,19.80
2008,09,30,15,16,19.80
2008,09,30,15,17,19.90
2008,09,30,15,18,19.90
2008,09,30,15,19,19.90
2008,09,30,15,20,19.90
2008,09,30,15,21,19.90
2008,09,30,15,22,19.80
2008,09,30,15,23,19.80
2008,09,30,15,24,19.80
2008,09,30,15,25,19.70
2008,09,30,15,26,19.70
2008,09,30,15,27,19.70
2008,09,30,15,28,19.70
2008,09,30,15,29,19.70
2008,09,30,15,30,19.60
2008,09,30,15,31,19.60
2008,09,30,15,32,19.50
2008,09,30,15,33,19.50
2008,09,30,15,34,19.50
2008,09,30,15,35,19.50
2008,09,30,15,36,19.50
2008,09,30,15,37,19.50
2008,09,30,15,38,19.50
2008,09,30,15,39,19.50
2008,09,30,15,40,19.50
2008,09,30,15,41,19.40
2008,09,30,15,42,19.30
2008,09,30,15,43,19.20
2008,09,30,15,44,19.00
2008,09,30,15,45,18.90
2008,09,30,15,46,18.80
2008,09,30,15,47,18.70
2008,09,30,15,48,18.60
2008,09,30,15,49,18.60
2008,09,30,15,50,18.50
2008,09,30,15,51,18.40
2008,09,30,15,52,18.40
2008,09,30,15,53,18.30
2008,09,30,15,54,18.30
2008,09,30,15,55,18.20
2008,09,30,15,56,18.20
2008,09,30,15,57,18.20
2008,09,30,15,58,18.20
2008,09,30,15,59,18.20
2008,09,30,16,00,18.20
2008,09,30,16,01,18.20
2008,09,30,16,02,18.20
2008,09,30,16,03,18.20
2008,09,30,16,04,18.20
2008,09,30,16,05,18.20
2008,09,30,16,06,18.30
2008,09,30,16,07,18.40
2008,09,30,16,08,18.40
2008,09,30,16,09,18.50
2008,09,30,16,10,18.50
2008,09,30,16,11,18.60
2008,09,30,16,12,18.60
2008,09,30,16,13,18.60
2008,09,30,16,14,18.70
2008,09,30,16,15,18.70
2008,09,30,16,16,18.70
2008,09,30,16,17,18.80
2008,09,30,16,18,18.80
2008,09,30,16,19,18.90
2008,09,30,16,20,18.90
2008,09,30,16,21,19.00
2008,09,30,16,22,19.10
2008,09,30,16,23,19.10
2008,09,30,16,24,19.10
2008,09,30,16,25,19.20
2008,09,30,16,26,19.20
2008,09,30,16,27,19.20
2008,09,30,16,28,19.30
2008,09,30,16,29,19.30
2008,09,30,16,30,19.30
2008,09,30,16,31,19.30
2008,09,30,16,32,19.30
2008,09,30,16,33,19.30
2008,09,30,16,34,19.40
2008,09,30,16,35,19.30
2008,09,30,16,36,19.30
2008,09,30,16,37,19.30
2008,09,30,16,38,19.30
2008,09,30,16,39,19.30
2008,09,30,16,40,19.30
2008,09,30,16,41,19.30
2008,09,30,16,42,19.30
2008,09,30,16,43,19.30
2008,09,30,16,44,19.30
2008,09,30,16,45,19.30
2008,09,30,16,46,19.30
2008,09,30,16,47,19.30
2008,09,30,16,48,19.30
2008,09,30,16,49,19.30
2008,09,30,16,50,19.30
2008,09,30,16,51,19.30
2008,09,30,16,52,19.30
2008,09,30,16,53,19.20
2008,09,30,16,54,19.10
2008,09,30,16,55,19.10
2008,09,30,16,56,19.10
2008,09,30,16,57,19.00
2008,09,30,16,58,18.90
2008,09,30,16,59,18.90
2008,09,30,17,00,18.90
2008,09,30,17,01,18.90
2008,09,30,17,02,18.80
2008,09,30,17,03,18.70
2008,09,30,17,04,18.70
2008,09,30,17,05,18.60
2008,09,30,17,06,18.60
2008,09,30,17,07,18.60
2008,09,30,17,08,18.50
2008,09,30,17,09,18.50
2008,09,30,17,10,18.50
2008,09,30,17,11,18.50
2008,09,30,17,12,18.50
2008,09,30,17,13,18.50
2008,09,30,17,14,18.50
2008,09,30,17,15,18.50
2008,09,30,17,16,18.50
2008,09,30,17,17,18.50
2008,09,30,17,18,18.50
2008,09,30,17,19,18.50
2008,09,30,17,20,18.50
2008,09,30,17,21,18.40
2008,09,30,17,22,18.40